GBOZI EGBO-EGIZ

Flight info

Callsign GBOZI
Flight time N/A
Altitude 3000
Route VFR
Aircraft P28A/L-SBDGRY/G

Departure

Time 2026-05-05 12:43
Airport Wolverhampton Halfpenny Green Airport (EGBO)

Arrival

Time N/A
Airport EGIZ
Time Latitude Longitude Altitude Speed Heading
2026-05-05 12:30 52.51547 -2.26461 263 ft 0 kts 185°
2026-05-05 12:39 52.51545 -2.26462 263 ft 2 kts 185°
2026-05-05 12:39 52.51534 -2.26494 264 ft 8 kts 269°
2026-05-05 12:39 52.51542 -2.26648 261 ft 15 kts 273°
2026-05-05 12:39 52.51602 -2.26698 257 ft 19 kts 35°
2026-05-05 12:40 52.51691 -2.26588 261 ft 12 kts 39°
2026-05-05 12:40 52.51703 -2.26472 263 ft 11 kts 96°
2026-05-05 12:40 52.51694 -2.26355 264 ft 12 kts 96°
2026-05-05 12:40 52.51679 -2.26155 268 ft 21 kts 99°
2026-05-05 12:41 52.51662 -2.25941 274 ft 17 kts 104°
2026-05-05 12:41 52.51575 -2.25853 278 ft 14 kts 155°
2026-05-05 12:41 52.51568 -2.25825 278 ft 2 kts 340°
2026-05-05 12:41 52.51577 -2.25833 278 ft 3 kts 333°
2026-05-05 12:42 52.51687 -2.25915 274 ft 42 kts 335°
2026-05-05 12:42 52.52021 -2.26173 430 ft 49 kts 333°
2026-05-05 12:42 52.52358 -2.26491 541 ft 64 kts 326°
2026-05-05 12:42 52.52713 -2.26917 728 ft 64 kts 322°
2026-05-05 12:43 52.52917 -2.27518 887 ft 72 kts 257°
2026-05-05 12:43 52.52657 -2.28274 1079 ft 76 kts 242°
2026-05-05 12:43 52.52343 -2.29023 1309 ft 83 kts 239°
2026-05-05 12:43 52.51980 -2.29747 1591 ft 84 kts 231°
2026-05-05 12:44 52.51404 -2.29801 1797 ft 93 kts 160°
2026-05-05 12:44 52.50804 -2.29418 2052 ft 92 kts 155°
2026-05-05 12:44 52.50224 -2.29002 2340 ft 91 kts 151°
2026-05-05 12:44 52.49687 -2.28424 2576 ft 96 kts 138°
2026-05-05 12:45 52.49131 -2.27820 2824 ft 97 kts 140°
2026-05-05 12:45 52.48507 -2.27341 3046 ft 101 kts 164°
2026-05-05 12:45 52.47782 -2.27122 3201 ft 113 kts 168°
2026-05-05 12:45 52.47021 -2.26968 3439 ft 110 kts 173°
2026-05-05 12:46 52.46267 -2.26793 3630 ft 109 kts 168°
2026-05-05 12:46 52.45520 -2.26517 3787 ft 113 kts 162°
2026-05-05 12:46 52.44723 -2.26182 3832 ft 123 kts 164°
2026-05-05 12:46 52.43900 -2.25836 3852 ft 119 kts 164°
2026-05-05 12:47 52.43098 -2.25522 3795 ft 119 kts 166°
2026-05-05 12:47 52.42296 -2.25260 3751 ft 119 kts 168°
2026-05-05 12:47 52.41468 -2.25040 3691 ft 121 kts 170°
2026-05-05 12:47 52.40640 -2.24868 3652 ft 119 kts 172°
2026-05-05 12:48 52.39825 -2.24716 3604 ft 117 kts 173°
2026-05-05 12:48 52.39048 -2.24585 3520 ft 111 kts 173°
2026-05-05 12:48 52.38210 -2.24458 3473 ft 129 kts 174°
2026-05-05 12:48 52.37287 -2.24347 3446 ft 138 kts 175°
2026-05-05 12:49 52.36318 -2.24224 3462 ft 139 kts 172°
2026-05-05 12:49 52.35429 -2.23750 3515 ft 136 kts 155°
2026-05-05 12:49 52.34569 -2.23122 3531 ft 137 kts 152°
2026-05-05 12:49 52.33706 -2.22457 3537 ft 136 kts 151°
2026-05-05 12:50 52.32850 -2.21813 3484 ft 131 kts 153°
2026-05-05 12:50 52.32029 -2.21273 3488 ft 123 kts 156°
2026-05-05 12:50 52.31239 -2.20760 3419 ft 121 kts 153°
2026-05-05 12:50 52.30494 -2.20141 3347 ft 120 kts 148°
2026-05-05 12:51 52.29762 -2.19498 3311 ft 117 kts 149°
2026-05-05 12:51 52.29040 -2.18899 3289 ft 115 kts 150°
2026-05-05 12:51 52.28331 -2.18345 3304 ft 117 kts 150°
2026-05-05 12:51 52.27615 -2.17813 3544 ft 111 kts 152°
2026-05-05 12:52 52.26864 -2.17613 3762 ft 111 kts 185°
2026-05-05 12:52 52.26118 -2.17914 3936 ft 110 kts 198°
2026-05-05 12:52 52.25377 -2.18251 3890 ft 112 kts 199°
2026-05-05 12:52 52.24653 -2.18597 3835 ft 106 kts 198°
2026-05-05 12:53 52.23951 -2.18937 3674 ft 105 kts 200°
2026-05-05 12:53 52.23229 -2.19344 3626 ft 112 kts 202°
2026-05-05 12:53 52.22524 -2.19758 3690 ft 105 kts 204°
2026-05-05 12:53 52.21865 -2.20213 3714 ft 103 kts 205°
2026-05-05 12:54 52.20504 -2.21160 3686 ft 109 kts 209°
2026-05-05 12:54 52.19843 -2.21708 3703 ft 106 kts 210°
2026-05-05 12:54 52.19192 -2.22310 3672 ft 109 kts 214°
2026-05-05 12:55 52.18483 -2.22581 3670 ft 107 kts 163°
2026-05-05 12:55 52.17910 -2.21898 3635 ft 105 kts 129°
2026-05-05 12:55 52.17461 -2.20975 3584 ft 106 kts 119°
2026-05-05 12:55 52.17052 -2.20023 3617 ft 104 kts 116°
2026-05-05 12:56 52.16645 -2.19050 3623 ft 100 kts 119°
2026-05-05 12:56 52.16227 -2.18123 3605 ft 102 kts 119°
2026-05-05 12:56 52.15796 -2.17204 3610 ft 101 kts 120°
2026-05-05 12:56 52.15356 -2.16310 3597 ft 102 kts 124°
2026-05-05 12:57 52.14892 -2.15424 3584 ft 103 kts 126°
2026-05-05 12:57 52.14408 -2.14546 3542 ft 105 kts 124°
2026-05-05 12:57 52.13928 -2.13642 3556 ft 106 kts 127°
2026-05-05 12:57 52.13417 -2.12801 3528 ft 110 kts 130°
2026-05-05 12:58 52.12838 -2.11964 3479 ft 112 kts 135°
2026-05-05 12:58 52.12258 -2.11184 3527 ft 106 kts 135°
2026-05-05 12:58 52.11685 -2.10441 3534 ft 104 kts 136°
2026-05-05 12:58 52.11308 -2.09513 3529 ft 98 kts 99°
2026-05-05 12:59 52.11068 -2.08479 3563 ft 99 kts 106°
2026-05-05 12:59 52.10777 -2.07433 3497 ft 106 kts 109°
2026-05-05 12:59 52.10454 -2.06365 3506 ft 101 kts 109°
2026-05-05 13:00 52.09872 -2.04362 3538 ft 98 kts 106°
2026-05-05 13:00 52.09588 -2.03349 3527 ft 99 kts 108°
2026-05-05 13:01 52.08764 -2.00270 3611 ft 98 kts 101°
2026-05-05 13:01 52.08550 -1.99206 3630 ft 100 kts 99°
2026-05-05 13:01 52.08223 -1.98198 3655 ft 103 kts 120°
2026-05-05 13:01 52.07792 -1.97313 3650 ft 98 kts 124°
2026-05-05 13:02 52.07350 -1.96484 3537 ft 97 kts 127°
2026-05-05 13:02 52.06922 -1.95652 3462 ft 93 kts 117°
2026-05-05 13:02 52.06587 -1.94759 3347 ft 93 kts 112°
2026-05-05 13:02 52.06285 -1.93829 3245 ft 93 kts 107°
2026-05-05 13:03 52.06039 -1.92855 3127 ft 93 kts 106°
2026-05-05 13:03 52.05749 -1.91930 3029 ft 91 kts 116°
2026-05-05 13:03 52.05431 -1.91058 2950 ft 92 kts 114°
2026-05-05 13:03 52.05092 -1.90159 2851 ft 91 kts 116°
2026-05-05 13:04 52.04723 -1.89299 2686 ft 96 kts 121°
2026-05-05 13:04 52.04355 -1.88438 2564 ft 94 kts 114°
2026-05-05 13:04 52.03956 -1.87555 2578 ft 97 kts 122°
2026-05-05 13:04 52.03501 -1.86739 2588 ft 97 kts 128°
2026-05-05 13:05 52.03037 -1.85940 2584 ft 102 kts 125°
2026-05-05 13:05 52.02588 -1.85115 2649 ft 99 kts 128°
2026-05-05 13:05 52.02131 -1.84264 2657 ft 100 kts 117°
2026-05-05 13:05 52.01849 -1.83281 2715 ft 97 kts 103°
2026-05-05 13:06 52.01606 -1.82278 2757 ft 98 kts 107°
2026-05-05 13:06 52.01341 -1.81245 2783 ft 99 kts 109°
2026-05-05 13:06 52.01056 -1.80230 2753 ft 101 kts 111°
2026-05-05 13:06 52.00683 -1.79240 2747 ft 107 kts 123°
2026-05-05 13:07 52.00207 -1.78325 2778 ft 105 kts 130°
2026-05-05 13:07 51.99705 -1.77448 2746 ft 106 kts 118°
2026-05-05 13:07 51.99474 -1.76352 2703 ft 102 kts 97°
2026-05-05 13:07 51.99295 -1.75233 2677 ft 102 kts 101°
2026-05-05 13:08 51.99041 -1.74154 2613 ft 102 kts 106°
2026-05-05 13:08 51.98819 -1.73070 2571 ft 103 kts 98°
2026-05-05 13:08 51.98673 -1.71955 2589 ft 100 kts 94°
2026-05-05 13:08 51.98574 -1.70822 2573 ft 104 kts 84°
2026-05-05 13:09 51.98629 -1.69681 2510 ft 100 kts 73°
2026-05-05 13:09 51.98747 -1.68603 2499 ft 97 kts 69°
2026-05-05 13:09 51.98949 -1.67545 2462 ft 98 kts 64°
2026-05-05 13:09 51.99189 -1.66523 2416 ft 99 kts 67°
2026-05-05 13:10 51.99341 -1.65411 2331 ft 101 kts 73°
2026-05-05 13:10 51.99368 -1.64257 2332 ft 102 kts 82°
2026-05-05 13:10 51.99371 -1.63077 2283 ft 105 kts 82°
2026-05-05 13:10 51.99369 -1.61925 2290 ft 100 kts 83°
2026-05-05 13:11 51.99434 -1.60815 2265 ft 100 kts 78°
2026-05-05 13:11 51.99508 -1.59684 2254 ft 100 kts 75°
2026-05-05 13:11 51.99633 -1.58591 2248 ft 98 kts 71°
2026-05-05 13:11 51.99706 -1.57528 2176 ft 90 kts 78°
2026-05-05 13:12 51.99752 -1.56519 2038 ft 89 kts 78°
2026-05-05 13:12 51.99807 -1.55563 1982 ft 85 kts 73°
2026-05-05 13:12 51.99917 -1.54597 1952 ft 90 kts 68°
2026-05-05 13:12 52.00021 -1.53587 1818 ft 88 kts 71°
2026-05-05 13:13 52.00167 -1.52639 1700 ft 87 kts 72°
2026-05-05 13:13 52.00323 -1.51649 1474 ft 94 kts 69°
2026-05-05 13:13 52.00482 -1.50647 1269 ft 89 kts 69°
2026-05-05 13:13 52.00642 -1.49736 1142 ft 85 kts 66°
2026-05-05 13:14 52.00875 -1.48835 1017 ft 86 kts 59°
2026-05-05 13:14 52.01134 -1.48027 1220 ft 75 kts 40°
2026-05-05 13:14 52.01592 -1.47634 1319 ft 77 kts 12°
2026-05-05 13:14 52.02150 -1.47563 1450 ft 84 kts
2026-05-05 13:15 52.02718 -1.47631 1618 ft 83 kts 352°
2026-05-05 13:15 52.03272 -1.47756 1782 ft 80 kts 355°
2026-05-05 13:15 52.03840 -1.47945 1781 ft 85 kts 324°
2026-05-05 13:15 52.04002 -1.48869 1721 ft 90 kts 274°
2026-05-05 13:16 52.03759 -1.49850 1546 ft 101 kts 234°
2026-05-05 13:16 52.03094 -1.50345 1277 ft 107 kts 196°
2026-05-05 13:16 52.02378 -1.50633 1169 ft 108 kts 196°
2026-05-05 13:16 52.01701 -1.50978 1276 ft 98 kts 200°
2026-05-05 13:17 52.01049 -1.51140 1162 ft 86 kts 166°
2026-05-05 13:17 52.00735 -1.50493 934 ft 75 kts 81°
2026-05-05 13:17 52.00811 -1.49702 721 ft 66 kts 69°
2026-05-05 13:17 52.00884 -1.49003 590 ft 49 kts 86°
2026-05-05 13:18 52.00891 -1.48788 581 ft 7 kts 88°
2026-05-05 13:18 52.00895 -1.48779 581 ft 0 kts 24°
2026-05-05 13:20 52.00951 -1.48796 589 ft 8 kts 284°
2026-05-05 13:20 52.00959 -1.48840 590 ft 0 kts 256°